Weather History for Dallas Love, TX

Change the Weather History Date:

Thursday, March 27, 2014

  Actual Average Record
Temperature  
Mean Temperature 69 °F -  
Max Temperature 82 °F 68 °F 82 °F (2008)
Min Temperature 57 °F 49 °F 37 °F (2009)
Cooling Degree Days 4    
Growing Degree Days 19 (Base 50)    
Moisture  
Dew Point 59 °F    
Average Humidity 80    
Maximum Humidity 97    
Minimum Humidity 54    
Precipitation  
Precipitation 0.04 in - - ()
Sea Level Pressure  
Sea Level Pressure 29.77 in    
Wind  
Wind Speed 15 mph (South)    
Max Wind Speed 21 mph    
Max Gust Speed 30 mph    
Visibility 7 miles    
Events Rain    
Averages and records for this station are not official NWS values.
T = Trace of Precipitation, MM = Missing Value Source: NWS Daily Summary

Daily Weather History Graph

Daily Weather History Graph

Search for Another Location

Airport:

Trip Planner

Search our weather history database for the weather conditions in past years. The results will help you decide how hot, cold, wet, or windy it might be!

Date:

Astronomy

Mar. 27, 2014 Rise Set
Actual Time 7:21 AM CDT 7:44 PM CDT
Civil Twilight 6:57 AM CDT 8:08 PM CDT
Nautical Twilight 6:28 AM CDT 8:37 PM CDT
Astronomical Twilight 5:58 AM CDT 9:07 PM CDT
Moon 5:03 AM CDT (3/27) 4:42 PM CDT (3/27)
Length of Visible Light 13h 11m
Length of Day
12h 22m
Waning Crescent, 13% of the Moon is Illuminated
Mar 27
Waning Crescent
Mar 30
New
Apr 7
First Quarter
Apr 15
Full
Apr 22
Last Quarter

Hourly Weather History & Observations

Time (CDT) Temp. Heat Index Dew Point Humidity Pressure Visibility Wind Dir Wind Speed Gust Speed Precip Events Conditions
12:53 AM 57.9 °F - 48.9 °F 72% 29.90 in 10.0 mi South 16.1 mph 25.3 mph N/A   Overcast
1:53 AM 57.9 °F - 50.0 °F 75% 29.87 in 8.0 mi South 20.7 mph 26.5 mph N/A   Overcast
2:53 AM 57.9 °F - 51.1 °F 78% 29.84 in 7.0 mi South 19.6 mph - N/A   Overcast
3:53 AM 57.9 °F - 52.0 °F 81% 29.81 in 6.0 mi South 13.8 mph 27.6 mph 0.00 in   Light Drizzle
4:53 AM 59.0 °F - 53.1 °F 81% 29.80 in 6.0 mi South 15.0 mph - 0.00 in   Haze
5:53 AM 60.1 °F - 54.0 °F 80% 29.78 in 7.0 mi South 16.1 mph 25.3 mph N/A   Overcast
6:53 AM 60.1 °F - 55.9 °F 86% 29.79 in 6.0 mi South 13.8 mph 20.7 mph 0.00 in   Light Drizzle
7:27 AM 60.1 °F - 55.9 °F 86% 29.80 in 4.0 mi South 16.1 mph 20.7 mph 0.00 in   Light Drizzle
7:53 AM 60.1 °F - 57.0 °F 90% 29.79 in 4.0 mi South 13.8 mph - 0.00 in   Light Drizzle
8:10 AM 60.1 °F - 57.9 °F 93% 29.80 in 2.5 mi South 13.8 mph - 0.00 in   Light Drizzle
8:53 AM 61.0 °F - 57.9 °F 90% 29.80 in 2.5 mi South 10.4 mph - 0.00 in   Light Drizzle
9:01 AM 61.0 °F - 57.9 °F 90% 29.82 in 4.0 mi SSW 10.4 mph - 0.00 in   Light Drizzle
9:15 AM 61.0 °F - 57.9 °F 90% 29.83 in 2.5 mi SSW 8.1 mph - 0.00 in   Light Drizzle
9:35 AM 61.0 °F - 59.0 °F 93% 29.83 in 1.5 mi SSW 9.2 mph - 0.01 in Rain Light Rain
9:53 AM 61.0 °F - 59.0 °F 93% 29.82 in 1.5 mi South 10.4 mph - 0.03 in Rain Light Rain
10:02 AM 61.0 °F - 60.1 °F 97% 29.82 in 1.5 mi South 15.0 mph - 0.00 in Rain Light Rain
10:10 AM 62.1 °F - 60.1 °F 93% 29.81 in 2.5 mi SSE 17.3 mph - 0.01 in Rain Light Rain
10:16 AM 63.0 °F - 61.0 °F 93% 29.81 in 2.5 mi SSE 15.0 mph - 0.01 in Rain Light Rain
10:20 AM 63.0 °F - 61.0 °F 93% 29.81 in 5.0 mi South 15.0 mph - 0.01 in Rain Light Rain
10:23 AM 63.0 °F - 61.0 °F 93% 29.81 in 6.0 mi South 16.1 mph - 0.01 in Rain Light Rain
10:53 AM 64.0 °F - 62.1 °F 93% 29.80 in 10.0 mi South 13.8 mph - 0.01 in   Overcast
11:35 AM 66.0 °F - 61.0 °F 84% 29.81 in 10.0 mi South 13.8 mph - N/A   Overcast
11:53 AM 68.0 °F - 62.1 °F 81% 29.79 in 10.0 mi South 17.3 mph 25.3 mph N/A   Overcast
12:53 PM 70.0 °F - 61.0 °F 73% 29.77 in 10.0 mi SSW 13.8 mph 21.9 mph N/A   Overcast
1:53 PM 73.0 °F - 62.1 °F 68% 29.75 in 10.0 mi SSW 15.0 mph 25.3 mph N/A   Overcast
1:57 PM 73.0 °F - 62.1 °F 68% 29.77 in 10.0 mi SSW 16.1 mph 25.3 mph N/A   Overcast
2:53 PM 77.0 °F - 62.1 °F 60% 29.71 in 10.0 mi SSW 16.1 mph 27.6 mph N/A   Mostly Cloudy
3:53 PM 80.1 °F 81.2 °F 62.1 °F 54% 29.68 in 10.0 mi South 16.1 mph 24.2 mph N/A   Mostly Cloudy
4:53 PM 81.0 °F 82.2 °F 63.0 °F 54% 29.66 in 10.0 mi SSE 17.3 mph 25.3 mph N/A   Mostly Cloudy
5:53 PM 79.0 °F - 63.0 °F 58% 29.65 in 10.0 mi South 18.4 mph 25.3 mph N/A   Mostly Cloudy
6:53 PM 79.0 °F - 63.0 °F 58% 29.65 in 10.0 mi South 19.6 mph 29.9 mph N/A   Scattered Clouds
7:53 PM 75.9 °F - 63.0 °F 64% 29.66 in 10.0 mi South 11.5 mph 21.9 mph N/A   Scattered Clouds
8:07 PM 75.0 °F - 63.0 °F 66% 29.68 in 10.0 mi South 10.4 mph - N/A   Scattered Clouds
8:53 PM 73.9 °F - 64.0 °F 71% 29.69 in 10.0 mi South 10.4 mph 17.3 mph N/A   Scattered Clouds
9:53 PM 72.0 °F - 64.0 °F 76% 29.72 in 10.0 mi South 6.9 mph - N/A   Partly Cloudy
10:53 PM 68.0 °F - 63.0 °F 84% 29.74 in 10.0 mi South 6.9 mph - N/A   Partly Cloudy
11:53 PM 68.0 °F - 64.0 °F 87% 29.74 in 10.0 mi SSE 6.9 mph - N/A   Partly Cloudy